Location: Presov
(49.0000°N, 21.2500°E)
Time: 01:31:59
(UTC+02:00)

ISS - Visible Passes

Search period start: 17 May 2025 00:00
Search period end: 27 May 2025 00:00
Orbit: 416 x 420 km, 51.6° (Epoch: 16 May)

Date Brightness Start Highest point End Pass type
(mag) Time Alt. Az. Time Alt. Az. Time Alt. Az.
17 May -3.4 22:17:43 10° WNW 22:21:04 63° NNE 22:23:11 20° E visible
17 May -1.9 23:54:35 10° WNW 23:56:06 23° W 23:56:06 23° W visible
18 May -3.1 21:29:41 10° WNW 21:33:00 55° N 21:36:19 10° E visible
18 May -3.7 23:06:32 10° WNW 23:09:42 59° SW 23:09:42 59° SW visible
19 May -3.9 22:18:29 10° WNW 22:21:51 83° SSW 22:23:18 32° ESE visible
19 May -1.1 23:55:47 10° W 23:56:12 12° W 23:56:12 12° W visible
20 May -3.7 21:30:27 10° WNW 21:33:49 76° NNE 21:36:53 12° ESE visible
20 May -2.4 23:07:27 10° W 23:09:48 27° SW 23:09:48 27° SW visible
21 May -3.2 22:19:16 10° WNW 22:22:27 42° SSW 22:23:24 33° SSE visible
22 May -3.6 21:31:09 10° WNW 21:34:28 61° SSW 21:37:02 16° SE visible
22 May -1.3 23:09:02 10° WSW 23:09:56 12° WSW 23:09:56 12° WSW visible
23 May -2.0 22:20:17 10° W 22:22:50 20° SW 22:23:34 18° SSW visible
24 May -2.5 21:31:54 10° W 21:34:53 29° SW 21:37:14 14° SSE visible
26 May -1.3 21:33:17 10° WSW 21:35:03 14° SW 21:36:49 10° SSW visible
